Location: Newark
(48.2308°N, 120.8549°W)
Time: 18:12:49
(UTC+00:00)

Vanguard 1 - Visible Passes

Search period start: 06 June 2020 00:00
Search period end: 16 June 2020 00:00
Orbit: 649 x 3834 km, 34.3° (Epoch: 05 June)

Date Brightness Start Highest point End Pass type
(mag) Time Alt. Az. Time Alt. Az. Time Alt. Az.
06 Jun 13.0 09:31:51 10° SSE 09:37:25 14° SE 09:44:14 10° E visible
07 Jun 12.8 09:49:43 10° S 09:57:17 19° SE 10:07:36 10° E visible
08 Jun 12.6 10:09:05 11° S 10:17:17 24° SE 10:29:57 10° E visible
09 Jun 12.5 10:28:37 12° SSW 10:37:26 30° SE 10:51:50 10° E visible
10 Jun 12.8 08:37:42 10° SE 08:39:01 10° SE 08:40:24 10° ESE visible
10 Jun 12.5 10:48:08 11° SSW 10:57:43 35° SSE 11:13:27 10° E visible
11 Jun 12.6 08:54:58 12° SSE 08:58:53 15° SE 09:05:37 10° E visible
11 Jun 12.5 11:08:02 10° SW 11:18:09 40° SSE 11:34:54 10° E visible
12 Jun 12.3 09:14:28 15° SSE 09:18:53 20° SE 09:28:12 10° E visible
13 Jun 12.1 09:33:59 17° S 09:39:00 25° SE 09:50:09 10° E visible
14 Jun 12.0 09:53:29 18° SSW 09:59:16 30° SSE 10:11:46 10° E visible
15 Jun 12.5 08:00:18 11° SE 08:01:01 11° SE 08:03:32 10° ESE visible
15 Jun 12.0 10:12:59 16° SSW 10:19:40 35° SSE 10:33:12 10° E visible
